Location: Marne
(34.0056°N, 117.9064°W)
Time: 03:27:18
(UTC+00:00)

H-2A ROCKET BODY - Pass Details

Date: 18 January 2020
Orbit: 242 x 15398 km, 28.6° (Epoch: 16 February)

Event Time Altitude Azimuth Distance (km) Brightness Sun altitude
Rises 02:22:11 0° 267° (W) 7,478 8.8 -15.5°
Reaches altitude 10° 02:29:41 10° 263° (W) 4,420 7.2 -17.0°
Maximum altitude 02:38:07 44° 194° (SSW) 936 2.6 -18.7°
Enters shadow 02:39:36 27° 139° (SE) 1,020 2.4 -19.0°
